Tracking 35274 objects as of 12-Sep-2026
HD Live streaming from Space Station
objects crossing your sky now

FOSSASAT2E11


FOSSASAT2E11 is no longer on orbit
FOSSASAT2E11 is classified as:


NORAD ID: 52750
Int'l Code: 2022-057U
Launch date: May 25, 2022
Source: Spain (SPN)
Launch site: AIR FORCE EASTERN TEST RANGE (AFETR)
Decay date: 2023-09-08

Uplink (MHz):
Downlink (MHz): 401.700
Beacon (MHz):
Mode: 9k6 GFSK 125k LoRa*
Call sign:
Status: Reentered

Your satellite tracking list
Your tracking list is empty




NASA's NSSDC Master Catalog

Two Line Element Set (TLE):
1 52750U 22057U   23250.29683637  .10675731  26081-5  21906-2 0  9993
2 52750  97.5287  17.3695 0019161 306.5819  53.3711 16.30626274 71825
Source of the keplerian elements: AFSPC